COSMOS 2329

导读

COSMOS 2329是苏联解体后独立国家联合体(CIS)于1996年2月19日发射的卫星,隶属于庞大的“宇宙号”(COSMOS)卫星系列。该系列自1962年开始发射,以多用途混编为特点,多数为军用卫星,包含试验任务航天器。作为冷战后独联体时期延续苏联航天项目的产物,它延续了宇宙系列在军事、空间探测等领域的应用,是俄罗斯航天传承发展的见证。

基本信息
目录编号:
23791
目录名称:
COSMOS 2329
国际标识:
1996-009E
轨道中心:
EARTH
卫星名称:
COSMOS 2329
卫星全名:
--
卫星状态:
在轨 (已飞行11162 天)
发射日期:
1996-02-19 UTC
国别 :
俄罗斯(独联体) (CIS)
星等 :
--
该卫星已列入 空间交会检测服务 Space Conjunction Data Service (SCDS) ,当前飞行风险评估等级: 无高风险
轨道信息
数据来源 国际轨道数据 AOE轨道数据
星历时间 2026-09-11T07:21:13+0800
9小时前
查看轨道信息
2026-09-10T22:00:00+0800
19小时前
查看轨道信息
半长轴 7794.047km 7794.053km
偏心率 0.0007899 0.0008266
轨道倾角 82.567° 82.569°
近地点辐角 226.167° 229.207°
升交点赤经 271.117° 271.365°
平近点角 153.921° 181.530°
近地点 1409.753km 1409.473km
远地点 1422.067km 1422.359km
周期 114.131分钟 114.131分钟
每日圈数 12.617064 12.617049
详细信息
使用方式:
暂无
2D轨道图
3D轨道图
轨道高度分析图
轨道倾角分析图
轨道综合分析图
查看轨道综合分析图
交会数据列表
事件ID 空间交会对象 最接近时刻(TCA) 交会距离 交会风险概率(CRP) 交会风险指数(CRI) 操作
CDM_260905-105702-379103-804225
2026-09-05T
10:57:12+0000
1.897 km
极远距离
3.057736E-6 低风险 0.45
与全量物体交会距离演化趋势
与全量物体交会风险概率演化趋势